FW2814 Weather Reports


time (UTC)temp
C
wind
direction
speed
KPH
gust
KPH
rain 1hr
cm
rain 24hr
cm
rain mn
cm
humidity
%
barometer
mb
20260906022122 28 338 0.0 0.0 0.00 0.00 0.00 85 983.9
20260906021122 28 338 0.0 0.0 0.00 0.00 0.00 85 984.1
20260906020122 28 338 0.0 0.0 0.00 0.00 0.00 85 984.1
20260906015122 29 338 0.0 0.0 0.00 0.00 0.00 84 984.2
20260906014123 29 158 0.0 0.0 0.00 0.00 0.00 83 984.2
20260906013144 30 158 0.0 0.0 0.00 0.00 0.00 82 984.1
20260906012143 30 158 0.0 0.0 0.00 0.00 0.00 81 984.2
20260906011143 30 158 0.0 0.0 0.00 0.00 0.00 80 984.2
20260906010122 30 158 0.0 0.0 0.00 0.00 0.00 80 984.2
20260906005122 30 338 0.0 0.0 0.00 0.00 0.00 79 984.0
20260906004122 31 158 0.0 0.0 0.00 0.00 0.00 78 983.9
20260906003126 31 158 0.0 0.0 0.00 0.00 0.00 77 983.9
20260906002126 31 158 0.0 0.0 0.00 0.00 0.00 75 984.1
20260906001122 31 158 0.0 0.0 0.00 0.00 0.00 74 984.0
20260906000122 32 158 0.0 0.0 0.00 0.00 0.00 74 984.0
20260905235122 32 135 0.0 0.0 0.00 0.00 0.00 73 984.2
20260905234122 32 158 0.0 0.0 0.00 0.00 0.00 72 984.2
20260905233122 33 158 0.0 0.0 0.00 0.00 0.00 72 984.1
20260905232122 33 135 0.0 0.0 0.00 0.00 0.00 69 984.0
20260905231124 33 158 0.0 0.0 0.00 0.00 0.00 68 984.0
20260905230124 34 158 0.0 0.0 0.00 0.00 0.00 67 984.0
20260905225124 35 135 0.0 0.0 0.00 0.00 0.00 66 984.0
20260905224143 35 158 0.0 0.0 0.00 0.00 0.00 64 983.9
20260905223122 35 90 0.0 1.6 0.00 0.00 0.00 62 984.0
20260905222122 36 90 0.0 0.0 0.00 0.00 0.00 62 984.0
20260905221122 36 158 0.0 0.0 0.00 0.00 0.00 61 984.2
20260905220122 36 158 0.0 0.0 0.00 0.00 0.00 60 984.2
20260905215124 36 158 0.0 0.0 0.00 0.00 0.00 60 984.0
20260905214125 37 90 0.0 0.0 0.00 0.00 0.00 60 984.1
20260905213124 37 158 0.0 0.0 0.00 0.00 0.00 58 984.2
20260905212122 37 203 0.0 0.0 0.00 0.00 0.00 56 984.2
20260905211122 37 270 0.0 0.0 0.00 0.00 0.00 56 984.2
20260905210122 37 158 0.0 0.0 0.00 0.00 0.00 56 984.2
20260905205143 37 135 0.0 0.0 0.00 0.00 0.00 57 984.5
20260905204122 37 174 0.0 3.2 0.00 0.00 0.00 56 984.6
20260905203122 37 158 0.0 3.2 0.00 0.00 0.00 59 984.7
20260905202122 36 137 1.6 4.8 0.00 0.00 0.00 58 984.9
20260905201122 37 56 1.6 4.8 0.00 0.00 0.00 57 985.1
20260905200122 38 40 0.0 4.8 0.00 0.00 0.00 56 985.1
20260905195122 36 129 0.0 4.8 0.00 0.00 0.00 59 985.2
20260905194122 36 134 0.0 3.2 0.00 0.00 0.00 60 985.2
20260905193122 37 78 1.6 4.8 0.00 0.00 0.00 60 985.4
20260905192122 36 113 0.0 0.0 0.00 0.00 0.00 63 985.7
20260905191125 35 113 0.0 1.6 0.00 0.00 0.00 63 986.0
20260905190125 35 202 0.0 1.6 0.00 0.00 0.00 65 986.0
20260905185125 37 270 0.0 1.6 0.00 0.00 0.00 59 986.2
20260905184143 36 118 1.6 4.8 0.00 0.00 0.00 60 986.2
20260905183122 37 95 1.6 6.4 0.00 0.00 0.00 58 986.2
20260905182122 36 305 1.6 6.4 0.00 0.00 0.00 59 986.5
20260905181122 36 29 1.6 6.4 0.00 0.00 0.00 59 986.6
20260905180122 37 66 1.6 6.4 0.00 0.00 0.00 57 986.6
20260905175122 36 102 1.6 4.8 0.00 0.00 0.00 61 986.7
20260905174122 36 70 1.6 4.8 0.00 0.00 0.00 63 986.8
20260905173122 35 272 1.6 9.7 0.00 0.00 0.00 63 986.8
20260905172122 35 248 1.6 6.4 0.00 0.00 0.00 63 986.9
20260905171122 35 43 1.6 6.4 0.00 0.00 0.00 64 987.0
20260905170122 35 132 1.6 3.2 0.00 0.00 0.00 66 987.0
20260905165122 35 49 1.6 4.8 0.00 0.00 0.00 66 987.2
20260905164122 33 10 0.0 4.8 0.00 0.00 0.00 68 987.4
20260905163126 34 337 0.0 4.8 0.00 0.00 0.00 68 987.4
20260905162125 33 72 0.0 3.2 0.00 0.00 0.00 70 987.5
20260905161123 33 108 0.0 4.8 0.00 0.00 0.00 69 987.6
20260905160122 33 90 0.0 0.0 0.00 0.00 0.00 72 987.7
20260905155122 32 68 0.0 0.0 0.00 0.00 0.00 74 987.7
20260905154122 32 99 0.0 3.2 0.00 0.00 0.00 75 987.8
20260905153122 31 158 0.0 3.2 0.00 0.00 0.00 76 987.8
20260905152122 31 158 0.0 0.0 0.00 0.00 0.00 80 987.9
20260905151122 31 337 0.0 3.2 0.00 0.00 0.00 80 987.9
20260905150123 30 338 0.0 0.0 0.00 0.00 0.00 81 987.9
20260905145122 31 338 0.0 0.0 0.00 0.00 0.00 81 988.0
20260905144122 31 322 0.0 3.2 0.00 0.00 0.00 82 988.0
20260905143122 30 338 0.0 0.0 0.00 0.00 0.00 85 987.9
20260905142122 30 293 0.0 0.0 0.00 0.00 0.00 85 987.8
20260905141122 30 315 0.0 0.0 0.00 0.00 0.00 86 987.7
20260905140122 29 315 0.0 0.0 0.00 0.00 0.00 89 987.7
20260905135122 28 338 0.0 0.0 0.00 0.00 0.00 89 987.8
20260905134122 28 338 0.0 0.0 0.00 0.00 0.00 90 987.8
20260905133122 27 338 0.0 0.0 0.00 0.00 0.00 91 987.8
20260905132143 27 315 0.0 0.0 0.00 0.00 0.00 91 987.9
20260905131122 27 338 0.0 0.0 0.00 0.00 0.00 91 987.7
20260905130122 26 338 0.0 0.0 0.00 0.00 0.00 92 987.7
20260905125122 26 338 0.0 0.0 0.00 0.00 0.00 92 987.8
20260905124122 26 338 0.0 0.0 0.00 0.00 0.00 92 987.9
20260905123122 26 315 0.0 0.0 0.00 0.00 0.00 92 987.8
20260905122122 25 315 0.0 0.0 0.00 0.00 0.00 92 987.6
20260905121122 25 338 0.0 0.0 0.00 0.00 0.00 92 987.5
20260905120122 25 293 0.0 0.0 0.00 0.00 0.00 92 987.5
20260905115122 25 338 0.0 0.0 0.00 0.00 0.00 92 987.4
20260905114122 25 315 0.0 0.0 0.00 0.00 0.00 92 987.2
20260905113122 25 293 0.0 0.0 0.00 0.00 0.00 92 987.0
20260905112143 25 293 0.0 0.0 0.00 0.00 0.00 92 986.8
20260905111122 25 293 0.0 0.0 0.00 0.00 0.00 92 986.7
20260905110122 25 270 0.0 0.0 0.00 0.00 0.00 93 986.7
20260905105146 25 270 0.0 0.0 0.00 0.00 0.00 93 986.6
20260905104123 25 270 0.0 0.0 0.00 0.00 0.00 93 986.5
20260905103122 25 270 0.0 0.0 0.00 0.00 0.00 94 986.5
20260905102122 25 270 0.0 0.0 0.00 0.00 0.00 94 986.4
20260905101122 25 293 0.0 0.0 0.00 0.00 0.00 94 986.5
20260905100122 25 293 0.0 0.0 0.00 0.00 0.00 94 986.5
20260905095122 25 293 0.0 0.0 0.00 0.00 0.00 94 986.5
20260905094122 25 270 0.0 0.0 0.00 0.00 0.00 94 986.5
20260905093122 25 270 0.0 0.0 0.00 0.00 0.00 94 986.5
20260905092122 25 293 0.0 0.0 0.00 0.00 0.00 94 986.5
20260905091122 25 293 0.0 0.0 0.00 0.00 0.00 94 986.5
20260905090122 25 293 0.0 0.0 0.00 0.00 0.00 94 986.5
20260905085143 25 315 0.0 0.0 0.00 0.00 0.00 94 986.5
20260905084122 25 315 0.0 0.0 0.00 0.00 0.00 94 986.4
20260905083146 25 315 0.0 0.0 0.00 0.00 0.00 93 986.6
20260905082125 25 315 0.0 0.0 0.00 0.00 0.00 93 986.6
20260905081125 25 338 0.0 0.0 0.00 0.00 0.00 93 986.6
20260905080122 25 270 0.0 0.0 0.00 0.00 0.00 93 986.6
20260905075122 25 315 0.0 0.0 0.00 0.00 0.00 92 986.6
20260905074143 25 338 0.0 0.0 0.00 0.00 0.00 92 986.6
20260905073122 25 270 0.0 0.0 0.00 0.00 0.00 91 986.5
20260905072122 25 270 0.0 0.0 0.00 0.00 0.00 91 986.5
20260905071125 26 270 0.0 0.0 0.00 0.00 0.00 91 986.5
20260905070125 26 270 0.0 0.0 0.00 0.00 0.00 91 986.5
20260905065125 26 270 0.0 0.0 0.00 0.00 0.00 92 986.4
20260905064123 25 270 0.0 0.0 0.00 0.00 0.00 92 986.4
20260905063143 25 270 0.0 0.0 0.00 0.00 0.00 91 986.4
20260905062122 25 270 0.0 0.0 0.00 0.00 0.00 91 986.5
20260905061122 26 270 0.0 0.0 0.00 0.00 0.00 92 986.5
20260905060122 25 270 0.0 0.0 0.00 0.00 0.00 92 986.5
20260905055122 26 270 0.0 0.0 0.00 0.00 0.00 91 986.7
20260905054143 26 270 0.0 0.0 0.00 0.00 0.00 91 986.8
20260905053143 26 270 0.0 0.0 0.00 0.00 0.00 91 986.7
20260905052124 26 270 0.0 0.0 0.00 0.00 0.00 91 986.9
20260905051122 26 270 0.0 0.0 0.00 0.00 0.00 91 986.8
20260905050122 26 270 0.0 0.0 0.00 0.00 0.00 90 986.8
20260905045122 26 248 0.0 0.0 0.00 0.00 0.00 90 987.0
20260905044122 26 225 0.0 0.0 0.00 0.00 0.00 90 987.0
20260905043122 26 270 0.0 0.0 0.00 0.00 0.00 90 987.0
20260905042123 26 270 0.0 0.0 0.00 0.00 0.00 90 987.1
20260905041123 26 270 0.0 0.0 0.00 0.00 0.00 90 987.0
20260905040124 26 270 0.0 0.0 0.00 0.00 0.00 90 987.0
20260905035122 26 270 0.0 0.0 0.00 0.00 0.00 90 987.0
20260905034122 26 270 0.0 0.0 0.00 0.00 0.00 90 987.2
20260905033143 27 270 0.0 0.0 0.00 0.00 0.00 89 987.2
20260905032143 27 270 0.0 0.0 0.00 0.00 0.00 89 987.5
20260905031122 27 203 0.0 0.0 0.00 0.00 0.00 89 987.6
20260905030123 27 270 0.0 0.0 0.00 0.00 0.00 88 987.6
20260905025124 27 270 0.0 0.0 0.00 0.00 0.00 88 987.7
20260905024123 27 270 0.0 0.0 0.00 0.00 0.00 88 987.7
20260905023143 27 203 0.0 0.0 0.00 0.00 0.00 88 987.6